Regional Weather Roundup
Issued by NWS

Home | Current Version | Previous Version | Text Only | Print | Product List | Glossary On
Versions: 1 2 3 4 5 6 7 8 9 10 11 12 13 14 15 16 17 18 19 20 21 22 23 24 25 26 27 28 29 30 31 32 33 34 35 36 37 38 39 40 41 42 43 44 45 46 47 48 49 50
000
ASHW40 PHFO 231132
RWRHI

WEATHER ROUNDUP FOR HAWAII
NATIONAL WEATHER SERVICE HONOLULU HI
100 AM HST MON JAN 23 2017

THIS IS AN AUTOMATED REPORT THAT HAS NOT BEEN QUALITY CONTROLLED.

NOTE..."FAIR" INDICATES FEW OR NO CLOUDS BELOW 12,000 FEET WITH NO
SIGNIFICANT WEATHER AND/OR OBSTRUCTIONS TO VISIBILITY.

* - THESE SITES REPORT LIMITED FIELDS

HIZ001>004-231200-
KAUAI-NIIHAU-

CITY           SKY/WX    TMP DP  RH WIND       PRES   REMARKS
LIHUE APT      CLOUDY    74  63  68 E17       30.20F
PORT ALLEN*      N/A     72 N/A N/A E16         N/A
POIPU*           N/A     73 N/A N/A NE10G18     N/A
PRINCEVILLE*     N/A     72 N/A N/A SE9G18      N/A
KOKOLE POINT*  NOT AVBL
MOLOAA DAIRY*    N/A     72  61  68 E10G18      N/A
WAIMEA HTS*    NOT AVBL
PUU OPAE*      NOT AVBL
PUU LUA*       NOT AVBL
MAKAHA RIDGE*    N/A     63  57  82 E1          N/A
$$

HIZ005>011-231200-
OAHU-

CITY           SKY/WX    TMP DP  RH WIND       PRES   REMARKS
HONOLULU       LGT RAIN  73  61  65 NE10      30.17F
KALAELOA       CLOUDY    75  61  61 NE9       30.18F
KANEOHE MCB    NOT AVBL
WHEELER FIELD  MOCLDY    69  61  76 E5        30.18F
BELLOWS*         N/A    N/A N/A N/A E23         N/A
KAHUKU*          N/A    N/A N/A N/A NE12G21     N/A
WHEELER*       NOT AVBL
WAIANAE HARBOR NOT AVBL
DILLINGHAM*      N/A     64  59  82 MISG        N/A
KAHUKU TRN*      N/A     70  59  68 W12G29      N/A
KAWAILOA*        N/A     64  61  88 E8G23       N/A
KII*             N/A     73  63  68 E24G33      N/A
MAKUA RANGE*     N/A     73  63  68 W3G10       N/A
OAHU FOREST NW NOT AVBL
SCHOFIELD BRK*   N/A     68  61  77 MISG        N/A
SCHOFIELD S*   NOT AVBL
WAIANAE VLY*   NOT AVBL
KUAOKALA*      NOT AVBL
HONOULIUULI*   NOT AVBL
MOKUOLOE IS*   NOT AVBL
PALEHUA*       NOT AVBL
WAIAWA PHB*    NOT AVBL
$$

HIZ012>013-231200-
MOLOKAI-

CITY           SKY/WX    TMP DP  RH WIND       PRES   REMARKS
MOLOKAI AIRPT  PTCLDY    67  58  72 NE6       30.15F
KALAUPAPA      NOT AVBL
MAKAPULAPAI*     N/A     73  63  68 E23G37      N/A
MOLOKAI 1*     NOT AVBL
PUU ALII*        N/A     54  54 100 NE5G20      N/A
$$

HIZ016-231200-
KAHOOLAWE-

CITY           SKY/WX    TMP DP  RH WIND       PRES   REMARKS
KAHOOLAWE*     NOT AVBL
HAKIOAWA*        N/A     68  62  79 MISG      30.53F
HONOKANAIA*      N/A     72  60  64 NE18G38   30.09
KANELOA*         N/A     70  63  78 E25G46      N/A
KEALIALALO*    NOT AVBL
LUA MAKIKA*    NOT AVBL
$$

HIZ014>015-231200-
LANAI-

CITY           SKY/WX    TMP DP  RH WIND       PRES   REMARKS
LANAI CITY     NOT AVBL
LANAI 1*       NOT AVBL
$$

HIZ017>028-231200-
MAUI-

CITY           SKY/WX    TMP DP  RH WIND       PRES   REMARKS
KAHULUI        MOCLDY    65  58  78 SE6       30.14F
KAPALUA-W MAUI NOT AVBL
HANA AIRPORT   CLOUDY    73  64  73 SE17      30.21F
HANA*            N/A     73 N/A N/A E9G20       N/A
HALEAKALA SUMM   N/A     41  19  42 E10         N/A
MAALAEA BAY*     N/A     72 N/A N/A VRB12G20    N/A
HALEAKALA*     NOT AVBL
KAUPO GAP*     NOT AVBL
KULA 1*          N/A     48  34  57 N3          N/A
$$

HIZ023>026-231200-
BIG ISLAND OF HAWAII COAST AND LOWER SLOPES-

CITY           SKY/WX    TMP DP  RH WIND       PRES   REMARKS
KAILUA KONA    CLOUDY    75  67  76 SE8       30.12S
HILO           LGT RAIN  68  66  94 W8        30.21F FOG
HONOKAA*         N/A     63 N/A N/A VRB1        N/A
KAWAIHAE MWT*  NOT AVBL
KAWAIHAE*        N/A     73 N/A N/A W1        30.12S
SOUTH POINT*     N/A     66 N/A N/A N21G29      N/A
UPOLU AIRPORT* NOT AVBL
KAMUELA*       MOSUNNY   54  54 100 E7        30.22F
HAKALAU*         N/A     48  46  93 S7G13       N/A
KALOKO-HONOKO*   N/A     73  66  78 E3        30.11F
PALI 2*          N/A     59  57  94 S12G17      N/A
KEALAKOMO*       N/A     72  64  78 N12G18      N/A
KAUPULEHU*     NOT AVBL
KAPAPALA*      NOT AVBL
LOWER KAHUKU*    N/A     59  54  82 VRB3G18     N/A
PUHE CS*         N/A    N/A N/A N/A E3          N/A
PUHO CS*         N/A     74  66  76 NE1         N/A
PTA KEAMUKU*     N/A     57  54  88 CALM        N/A
WAIKOLOA*      NOT AVBL
$$

HIZ027>028-231200-
BIG ISLAND OF HAWAII INTERIOR AND SUMMMITS-

CITY           SKY/WX    TMP DP  RH WIND       PRES   REMARKS
BRADSHAW FIELD PTCLDY    55  31  40 SE12      30.41F
MK VISITOR CEN   N/A     45  21  39 NE7         N/A
MAUNA KEA*       N/A     30  -2  24 CALM        N/A
MAUNA LOA*       N/A    N/A N/A N/A MISG        N/A
MAUNA LOA 1*   NOT AVBL
PTA KIPUKA*      N/A     73  73 100 S5          N/A
PTA RANGE 17*    N/A     54  43  66 E15G25      N/A
PTA WEST*        N/A     57  48  72 S14G25      N/A
NENE CABIN*      N/A     46  34  61 NE7G14      N/A
AHUMOA*        NOT AVBL
PTA PORTABLE*  NOT AVBL
PUU MALI*        N/A     52 N/A N/A SE3G12      N/A
$$

HIC003-231200-
NORTHWEST ISLANDS-

CITY           SKY/WX    TMP DP  RH WIND       PRES   REMARKS
MIDWAY ISLAND  CLOUDY    64  54  68 NE9       30.22S
MIDWAY NOS*      N/A     66 N/A N/A MISG      30.20S
FRENCH FRIGATE NOT AVBL
$$

PHZ110>124-180-231200-
BUOY REPORTS

STATION/POSITION TIME  TEMP    WIND        PRES    WAVE   SWELL
                       AIR SEA DIR/SP/G            HT/PER HT/DIR
                 (UTC) (F)     (DEG/KT/KT) (MB)    (FT/S) (FT/D)
BUOY 51001       1110   74 74  110/ 16/ 19 1023.0
BUOY 51101       1050   74 75  110/ 14/ 19 1023.7F  10/10   8/ 80
BUOY 51100       NOT AVBL
BUOY 51002       1110   76 77   60/ 23/ 31 1018.0
BUOY 51003       1050   76 78   70/ 19/ 23 1020.1F  13/10   8/ 70
BUOY 51004       1050      77   70/ 25/ 33 1019.0S  14/11  11/ 20
BARBERS PT BUOY  NOT AVBL
WAIMEA BAY BUOY  1102      74                N/A     9/11   5/360
KAILUA BAY BUOY  1104      75                N/A    13/ 9   5/ 10
LANAI BUOY       1115      77                N/A     3/12   2/290
BARBERS PT 2     1109      77                N/A     5/ 8   2/280
PAUWELA MAUI     1039      75                N/A    13/10   7/360
HILO             1112      76                N/A    12/11   7/ 30
KANEOHE BAY BUOY 1106      75                N/A    12/11   7/ 10
HANALEI KAUAI    1052      76                N/A    12/10   5/ 60
KAHULUI HARBOR   1100   67 74  100/  3/  6 1020.5
HONOLULU HARBOR  1100   72 75   70/  4/ 12 1022.2
KILO NALU        NOT AVBL
HILO HARBOR      1100   67 73  190/  7/ 12 1023.2
MOKUOLOE         1036   74 73   90/ 17/ 22 1022.3R
NAWILIWILI       1100   74      80/ 19/ 22 1022.0
WHOTS BUOY       NOT AVBL
BUOY 51028       NOT AVBL
$$

......................KEY........................................
  SKY/WX - SKY CONDITIONS/PRESENT WEATHER
  TMP    - TEMPERATURE IN FAHRENHEIT
  DWPT   - DEWPOINT IN FAHRENHEIT
  RH     - RELATIVE HUMIDITY IN PERCENT
  WIND   - DIRECTION AND SPEED /MPH FOR ISLANDS...KTS FOR BUOYS/
  PRES   - MEAN SEA LEVEL PRESSURE IN INCHES OF HG
  VSB    - VISIBILITY IN MILES
  HX     - HEAT INDEX
  WCI    - WIND CHILL INDEX
  VRB    - VARIABLE WIND DIRECTION
  N/A    - NOT AVAILABLE




USA.gov is the U.S. government's official web portal to all federal, state and local government web resources and services.